Location: Doverdale
(52.2833°N, 2.2000°W)
Time: 02:51:48
(UTC+00:00)

Cosmos 1980 Rocket - Pass Details

Date: 02 March 2021
Orbit: 828 x 851 km, 71.0° (Epoch: 15 April)

Event Time Altitude Azimuth Distance (km) Brightness Sun altitude
Rises 22:42:57 0° 312° (NW) 3,423 6.2 -40.3°
Reaches altitude 10° 22:47:24 10° 345° (NNW) 2,490 5.3 -40.7°
Maximum altitude 22:49:21 12° 5° (N) 2,371 5.0 -40.8°
Enters shadow 22:51:07 10° 23° (NNE) 2,468 4.9 -41.0°
